Terminal Aerodrome Forecast
Issued by NWS Charleston, WV

Home | Current Version | Previous Version | Text Only | Print | Product List | Glossary On
Versions: 1 2 3 4 5 6 7 8 9 10 11 12 13 14 15 16 17 18 19 20 21 22 23 24 25 26 27 28 29 30 31 32 33 34 35 36 37
000
FTUS41 KRLX 241300 AAA
TAFEKN
TAF AMD
KEKN 241310Z 2413/2512 00000KT 5SM BR BKN250
     FM241400 29004KT P6SM SCT150
     FM250000 00000KT P6SM SCT200
     FM250300 00000KT P6SM BKN035
     FM250500 00000KT P6SM BKN025=

USA.gov is the U.S. government's official web portal to all federal, state and local government web resources and services.